BADR-5

Last updated on Sun Jun 21 2026 00:03:04 GMT+0000 (Coordinated Universal Time)

1 36592U 10025A 26171.32669471 .00000149 00000+0 00000+0 0 9990 2 36592 0.0587 116.4439 0003987 74.0705 226.1073 1.00273867 53244
UTC large
Height (km)
Speed (km/s)
/
Latitude / Longitude
Inclination (degrees)
Orbital Period (minutes)
Azimuth
Elevation
Range (km)
Doppler Factor

Next 0 passes for location: London (51.5072 / 0.1276)

No passes found over London.
BADR-5